Weather History for Guymon, OK

Change the Weather History Date:

Saturday, April 27, 2013

  Actual Average Record
Temperature  
Mean Temperature 60 °F 59 °F  
Max Temperature 80 °F 74 °F 86 °F (2004)
Min Temperature 39 °F 44 °F 32 °F (2008)
Degree Days  
Heating Degree Days 5 7  
Month to date heating degree days 422 287  
Since 1 July heating degree days 4213 4335  
Cooling Degree Days 0 1  
Month to date cooling degree days 6 7  
Year to date cooling degree days 6 9  
Growing Degree Days 9 (Base 50)    
Moisture  
Dew Point 37 °F    
Average Humidity 52    
Maximum Humidity 86    
Minimum Humidity 18    
Precipitation  
Precipitation T in 0.05 in 0.07 in (2002)
Month to date precipitation 0.49 1.35  
Year to date precipitation 2.19 3.65  
Snow  
Snow 0.00 in - - ()
Month to date snowfall T  
Since 1 July snowfall 22.0  
Snow Depth 0.00 in    
Sea Level Pressure  
Sea Level Pressure 30.02 in    
Wind  
Wind Speed 6 mph (SSE)    
Max Wind Speed 21 mph    
Max Gust Speed 33 mph    
Visibility 10 miles    
Events      
T = Trace of Precipitation, MM = Missing Value Source: NWS Daily Summary

Daily Weather History Graph

Daily Weather History Graph

Search for Another Location

Airport:

Trip Planner

Search our weather history database for the weather conditions in past years. The results will help you decide how hot, cold, wet, or windy it might be!

Date:

Astronomy

Apr. 27, 2013 Rise Set
Actual Time 6:56 AM CDT 8:31 PM CDT
Civil Twilight 6:29 AM CDT 8:58 PM CDT
Nautical Twilight 5:56 AM CDT 9:31 PM CDT
Astronomical Twilight 5:21 AM CDT 10:06 PM CDT
Moon 10:59 PM CDT (4/27) 8:19 AM CDT (4/27)
Length of Visible Light 14h 29m
Length of Day
13h 34m
Waning Gibbous, 95% of the Moon is Illuminated
Apr 27
Waning Gibbous
May 2
Last Quarter
May 9
New
May 17
First Quarter
May 24
Full

Hourly Weather History & Observations

Time (CDT) Temp. Windchill Dew Point Humidity Pressure Visibility Wind Dir Wind Speed Gust Speed Precip Events Conditions
12:53 AM 46.0 °F - 42.1 °F 86% 30.12 in 10.0 mi Calm Calm - N/A   Clear
1:53 AM 46.9 °F - 41.0 °F 80% 30.13 in 10.0 mi WSW 3.5 mph - N/A   Clear
2:53 AM 46.0 °F 42.5 °F 39.9 °F 79% 30.12 in 10.0 mi WNW 6.9 mph - N/A   Clear
3:53 AM 44.1 °F 40.1 °F 39.0 °F 82% 30.12 in 10.0 mi WNW 6.9 mph - N/A   Clear
4:53 AM 42.1 °F - 37.9 °F 85% 30.11 in 10.0 mi Calm Calm - N/A   Clear
5:53 AM 42.1 °F - 37.0 °F 82% 30.12 in 10.0 mi Calm Calm - N/A   Clear
6:53 AM 39.9 °F 35.1 °F 36.0 °F 86% 30.13 in 10.0 mi WSW 6.9 mph - N/A   Clear
7:53 AM 45.0 °F - 37.9 °F 76% 30.13 in 10.0 mi Calm Calm - N/A   Clear
8:53 AM 51.1 °F - 42.1 °F 71% 30.13 in 10.0 mi West 4.6 mph - N/A   Clear
9:53 AM 61.0 °F - 44.1 °F 54% 30.11 in 10.0 mi Calm Calm - N/A   Clear
10:53 AM 66.9 °F - 41.0 °F 39% 30.09 in 10.0 mi Variable 3.5 mph - N/A   Clear
11:53 AM 71.1 °F - 41.0 °F 34% 30.08 in 10.0 mi ESE 6.9 mph - N/A   Clear
12:53 PM 73.0 °F - 41.0 °F 31% 30.06 in 10.0 mi East 5.8 mph - N/A   Clear
1:53 PM 75.9 °F - 37.9 °F 25% 30.01 in 10.0 mi ESE 10.4 mph - N/A   Clear
2:53 PM 77.0 °F - 35.1 °F 22% 29.98 in 10.0 mi ENE 4.6 mph - N/A   Mostly Cloudy
3:53 PM 75.0 °F - 32.0 °F 21% 29.96 in 10.0 mi Calm Calm - 0.00 in   Overcast
4:53 PM 79.0 °F - 35.1 °F 20% 29.92 in 10.0 mi ESE 11.5 mph - N/A   Partly Cloudy
5:53 PM 78.1 °F - 32.0 °F 19% 29.90 in 10.0 mi East 8.1 mph - N/A   Clear
6:53 PM 77.0 °F - 30.9 °F 19% 29.89 in 10.0 mi SSW 12.7 mph - N/A   Partly Cloudy
7:53 PM 75.0 °F - 32.0 °F 21% 29.87 in 10.0 mi South 9.2 mph - N/A   Clear
8:53 PM 64.9 °F - 33.1 °F 31% 29.88 in 10.0 mi South 4.6 mph - N/A   Clear
9:53 PM 63.0 °F - 32.0 °F 31% 29.89 in 10.0 mi ESE 8.1 mph - N/A   Clear
10:53 PM 61.0 °F - 35.1 °F 38% 29.91 in 10.0 mi SE 9.2 mph - N/A   Clear
11:53 PM 53.1 °F - 37.9 °F 57% 29.91 in 10.0 mi Calm Calm - N/A   Clear